User: anonymous   Login
Location: ????? ????
(37.9717°N, 23.4051°E)
Time: 01:12:22
(UTC+00:00)
Language:

YAOGAN 1 - Orbit

View from above orbital plane
View from above orbital plane
View from above satellite
View from above satellite

Ground track
Ground track

The orbit data is extracted from the following two-line orbital elements,

1 29092U 06015A   24174.60541754  .00001201  00000-0  14593-3 0  9993
2 29092  97.8038 199.9358 0001585  92.1039 268.0357 14.85297385982132
Epoch (UTC): 22 June 2024 14:31:48
Eccentricity: 0.0001585
inclination: 97.8038°
perigee height: 611 km
apogee height: 614 km
right ascension of ascending node: 199.9358°
argument of perigee: 92.1039°
revolutions per day: 14.85297385
mean anomaly at epoch: 268.0357°
orbit number at epoch: 98213

The dashed part of the orbit path shows where the satellite is in the earth's shadow,  

DLR